Location: Czekanka
(50.4925°N, 19.2643°E)
Time: 11:39:25
(UTC+00:00)

FENGYUN 1C DEB - Pass Details

Date: 26 November 2025
Orbit: 800 x 866 km, 98.6° (Epoch: 04 December)

Event Time Altitude Azimuth Distance (km) Brightness Sun altitude
Rises 04:53:26 0° 5° (N) 3,326 ? -12.5°
Reaches altitude 10° 04:56:20 10° 349° (N) 2,388 ? -12.1°
Maximum altitude 05:00:02 20° 304° (NW) 1,788 ? -11.5°
Drops below altitude 10° 05:03:44 10° 259° (W) 2,380 ? -10.9°
Enters shadow 05:04:20 - 255° (WSW) 2,552 ? -10.9°
